COSMOS 1084

Satellite information

Favourite Embed

Satellite Type and Status

PAYLOADIN ORBIT

Key statistics

Satellite COSMOS 1084 at a glance.

Uptime

16861

Days in orbit

Revolutions

≈ 12.5

Per day

Orbit

LEO

Low Earth Orbit

Inclination

74.0

Latest

Satellite identification and parameters

Extended collection of information and parameters for COSMOS 1084.

Object identification

Identified? True

Debris? False

Object name: COSMOS 1084

International designator: 1979-024D

Object number (NORAD): 11299

Object ID (CCSDS): 11299

Country: COMMONWEALTH OF INDEPENDENT STATES (CIS)

Current information (Y/N): Y

RCS size: MEDIUM

Orbital parameters

Period: 115.155 minutes

Inclination: 74.0302 deg

SMA: 7840.6 km

Apoapsis: 1464.002 km

Periapsis: 1460.928 km

RAAN: 132.1129 deg

Eccentricy: 0.000196

Argument of periapsis: 334.6107 deg

Mean anomaly: 136.0707 deg

Mean motion: 12.50485887 rev/day

Mean motion (dot): -0.00000004 rev/day2

B* drag term: 0.000075586 1/REarth

Two-line elements (TLE)

Creation date: May 12, 2025, 7:41 p.m.

Reference frame: TEME

Reference center: EARTH

Epoch: May 12, 2025, 10:38 a.m. UTC

TLE line 0: 0 COSMOS 1084

TLE line 1: 1 11299U 79024D 25132.44364863 -.00000004 00000-0 75586-4 0 9995

TLE line 2: 2 11299 74.0302 132.1129 0001960 334.6107 136.0707 12.50485887107010

Live tracking on map

Real-time ground track for satellite COSMOS 1084.

In-orbit conjunctions

There are no conjunctions computed for COSMOS 1084, at the moment. Check back to stay up to date, as we update our databases every day.

Go to all conjunctions

Associated space launch

Military communications satellites

COSMOS 1084 was lifted into orbit during the mission ‘Kosmos-3M | Strela-1M 169-176’, on board a Kosmos-3M space rocket.

The launch took place on March 15, 1979, 2:58 a.m. from 132/2.

For more information about the launch, click the button.

Launch to space Kosmos-3M | Strela-1M 169-176
Kosmos-3M | Strela-1M 169-176

Agency: N/A

Status: Launch Successful

Launch date: March 15, 1979, 2:58 a.m. UTC

Rocket: Kosmos-3M

Launch pad: 132/2

Location: Plesetsk Cosmodrome, Russian Federation

...

Latest news about this satellite

There are no fresh news available about this satellite. Check back as we update our databases every day.


Newsletter sign-up

Weekly statistics, charts and insights to help you stay on top of the space industry.